| time (UTC) | temp F | wind direction | speed MPH | gust MPH | rain 1hr in | rain 24hr in | rain mn in | humidity % | barometer mb |
| 20260506153026 | 62 | 170 | 2.0 | 5.0 | 0.00 | 0.00 | 0.00 | 92 | 1007.3 |
| 20260506152528 | 62 | 185 | 2.0 | 5.0 | 0.00 | 0.00 | 0.00 | 92 | 1007.3 |
| 20260506152026 | 62 | 205 | 2.0 | 5.0 | 0.00 | 0.00 | 0.00 | 91 | 1007.3 |
| 20260506151527 | 62 | 213 | 1.0 | 7.0 | 0.00 | 0.00 | 0.00 | 91 | 1007.3 |
| 20260506151027 | 62 | 167 | 4.0 | 7.0 | 0.00 | 0.00 | 0.00 | 90 | 1007.4 |
| 20260506150526 | 62 | 202 | 3.0 | 8.0 | 0.00 | 0.00 | 0.00 | 89 | 1007.3 |
| 20260506150024 | 62 | 201 | 3.0 | 8.0 | 0.00 | 0.00 | 0.00 | 89 | 1007.4 |
| 20260506145525 | 62 | 208 | 3.0 | 7.0 | 0.00 | 0.00 | 0.00 | 89 | 1007.5 |
| 20260506145025 | 62 | 215 | 1.0 | 7.0 | 0.00 | 0.00 | 0.00 | 89 | 1007.3 |
| 20260506144529 | 63 | 171 | 2.0 | 6.0 | 0.00 | 0.00 | 0.00 | 88 | 1007.4 |
| 20260506144024 | 63 | 202 | 1.0 | 5.0 | 0.00 | 0.00 | 0.00 | 88 | 1007.3 |
| 20260506143527 | 63 | 202 | 1.0 | 6.0 | 0.00 | 0.00 | 0.00 | 87 | 1007.5 |
| 20260506143026 | 63 | 205 | 2.0 | 8.0 | 0.00 | 0.00 | 0.00 | 86 | 1007.5 |
| 20260506142522 | 63 | 183 | 3.0 | 8.0 | 0.00 | 0.00 | 0.00 | 86 | 1007.6 |
| 20260506142021 | 63 | 184 | 3.0 | 8.0 | 0.00 | 0.00 | 0.00 | 85 | 1007.6 |
| 20260506141523 | 63 | 221 | 3.0 | 9.0 | 0.00 | 0.00 | 0.00 | 83 | 1007.7 |
| 20260506141024 | 64 | 194 | 3.0 | 10.0 | 0.00 | 0.00 | 0.00 | 81 | 1007.7 |
| 20260506140522 | 65 | 186 | 6.0 | 10.0 | 0.00 | 0.00 | 0.00 | 80 | 1007.6 |
| 20260506140022 | 65 | 183 | 6.0 | 12.0 | 0.00 | 0.00 | 0.00 | 78 | 1007.7 |
| 20260506135521 | 65 | 183 | 6.0 | 11.0 | 0.00 | 0.00 | 0.00 | 78 | 1007.7 |
| 20260506135020 | 66 | 186 | 3.0 | 14.0 | 0.00 | 0.00 | 0.00 | 77 | 1007.6 |
| 20260506134521 | 66 | 150 | 3.0 | 11.0 | 0.00 | 0.00 | 0.00 | 75 | 1007.5 |
| 20260506134021 | 67 | 165 | 5.0 | 14.0 | 0.00 | 0.00 | 0.00 | 74 | 1007.5 |
| 20260506133523 | 67 | 213 | 6.0 | 14.0 | 0.00 | 0.00 | 0.00 | 74 | 1007.4 |
| 20260506133019 | 67 | 185 | 5.0 | 12.0 | 0.00 | 0.00 | 0.00 | 74 | 1007.3 |
| 20260506132526 | 68 | 192 | 5.0 | 14.0 | 0.00 | 0.00 | 0.00 | 74 | 1007.1 |
| 20260506132019 | 67 | 188 | 6.0 | 10.0 | 0.00 | 0.00 | 0.00 | 74 | 1007.1 |
| 20260506131529 | 66 | 211 | 2.0 | 12.0 | 0.00 | 0.00 | 0.00 | 75 | 1007.0 |
| 20260506131019 | 66 | 178 | 4.0 | 12.0 | 0.00 | 0.00 | 0.00 | 74 | 1007.1 |
| 20260506130519 | 66 | 201 | 4.0 | 12.0 | 0.00 | 0.00 | 0.00 | 74 | 1007.0 |
| 20260506130019 | 66 | 151 | 4.0 | 10.0 | 0.00 | 0.00 | 0.00 | 75 | 1007.0 |
| 20260506125519 | 66 | 189 | 4.0 | 11.0 | 0.00 | 0.00 | 0.00 | 76 | 1007.1 |
| 20260506125020 | 66 | 205 | 4.0 | 11.0 | 0.00 | 0.00 | 0.00 | 75 | 1007.3 |
| 20260506124517 | 66 | 169 | 2.0 | 9.0 | 0.00 | 0.00 | 0.00 | 76 | 1007.2 |
| 20260506124017 | 66 | 192 | 4.0 | 9.0 | 0.00 | 0.00 | 0.00 | 75 | 1007.3 |
| 20260506123517 | 66 | 196 | 2.0 | 9.0 | 0.00 | 0.00 | 0.00 | 75 | 1007.2 |
| 20260506123017 | 65 | 197 | 4.0 | 10.0 | 0.00 | 0.00 | 0.00 | 75 | 1007.4 |
| 20260506122517 | 65 | 206 | 4.0 | 10.0 | 0.00 | 0.00 | 0.00 | 75 | 1007.6 |
| 20260506122015 | 65 | 190 | 5.0 | 10.0 | 0.00 | 0.00 | 0.00 | 76 | 1007.5 |
| 20260506121515 | 65 | 190 | 3.0 | 10.0 | 0.00 | 0.00 | 0.00 | 77 | 1007.5 |
| 20260506121016 | 65 | 183 | 4.0 | 10.0 | 0.00 | 0.00 | 0.00 | 76 | 1007.6 |
| 20260506120515 | 65 | 112 | 2.0 | 8.0 | 0.00 | 0.00 | 0.00 | 77 | 1007.7 |
| 20260506120019 | 65 | 178 | 4.0 | 8.0 | 0.00 | 0.00 | 0.00 | 76 | 1007.7 |
| 20260506115519 | 65 | 194 | 2.0 | 7.0 | 0.00 | 0.00 | 0.00 | 76 | 1007.6 |
| 20260506115015 | 64 | 196 | 2.0 | 7.0 | 0.00 | 0.00 | 0.00 | 76 | 1007.8 |
| 20260506114516 | 64 | 206 | 4.0 | 7.0 | 0.00 | 0.00 | 0.00 | 76 | 1007.7 |
| 20260506114014 | 64 | 230 | 3.0 | 5.0 | 0.00 | 0.00 | 0.00 | 76 | 1007.6 |
| 20260506113514 | 64 | 144 | 2.0 | 7.0 | 0.00 | 0.00 | 0.00 | 77 | 1007.5 |
| 20260506113014 | 64 | 168 | 3.0 | 7.0 | 0.00 | 0.00 | 0.00 | 76 | 1007.4 |
| 20260506112513 | 64 | 176 | 1.0 | 7.0 | 0.00 | 0.00 | 0.00 | 76 | 1007.5 |
| 20260506112013 | 64 | 215 | 2.0 | 7.0 | 0.00 | 0.00 | 0.00 | 76 | 1007.4 |
| 20260506111513 | 64 | 153 | 2.0 | 7.0 | 0.00 | 0.00 | 0.00 | 75 | 1007.3 |
| 20260506111012 | 64 | 244 | 4.0 | 9.0 | 0.00 | 0.00 | 0.00 | 75 | 1007.4 |
| 20260506110512 | 64 | 152 | 3.0 | 9.0 | 0.00 | 0.00 | 0.00 | 74 | 1007.4 |
| 20260506110012 | 64 | 169 | 3.0 | 7.0 | 0.00 | 0.00 | 0.00 | 74 | 1007.4 |
| 20260506105511 | 63 | 187 | 2.0 | 12.0 | 0.00 | 0.00 | 0.00 | 74 | 1007.3 |
| 20260506105014 | 63 | 168 | 2.0 | 7.0 | 0.00 | 0.00 | 0.00 | 75 | 1007.3 |
| 20260506104511 | 63 | 182 | 2.0 | 6.0 | 0.00 | 0.00 | 0.00 | 75 | 1007.3 |
| 20260506104010 | 63 | 176 | 3.0 | 7.0 | 0.00 | 0.00 | 0.00 | 75 | 1007.3 |
| 20260506103514 | 63 | 218 | 2.0 | 6.0 | 0.00 | 0.00 | 0.00 | 74 | 1007.3 |
| 20260506103010 | 63 | 174 | 3.0 | 6.0 | 0.00 | 0.00 | 0.00 | 74 | 1007.3 |
| 20260506102510 | 63 | 171 | 3.0 | 6.0 | 0.00 | 0.00 | 0.00 | 74 | 1007.1 |
| 20260506102010 | 63 | 198 | 1.0 | 7.0 | 0.00 | 0.00 | 0.00 | 73 | 1007.0 |
| 20260506101521 | 64 | 190 | 1.0 | 7.0 | 0.00 | 0.00 | 0.00 | 72 | 1007.1 |
| 20260506101008 | 64 | 154 | 1.0 | 7.0 | 0.00 | 0.00 | 0.00 | 72 | 1007.3 |
| 20260506100508 | 64 | 194 | 2.0 | 6.0 | 0.00 | 0.00 | 0.00 | 72 | 1007.2 |
| 20260506100008 | 64 | 157 | 2.0 | 7.0 | 0.00 | 0.00 | 0.00 | 71 | 1007.1 |
| 20260506095508 | 64 | 193 | 3.0 | 7.0 | 0.00 | 0.00 | 0.00 | 71 | 1007.1 |
| 20260506095008 | 64 | 190 | 3.0 | 8.0 | 0.00 | 0.00 | 0.00 | 71 | 1007.2 |
| 20260506094519 | 64 | 194 | 2.0 | 9.0 | 0.00 | 0.00 | 0.00 | 70 | 1007.2 |
| 20260506094008 | 64 | 182 | 4.0 | 10.0 | 0.00 | 0.00 | 0.00 | 71 | 1007.3 |
| 20260506093506 | 64 | 195 | 2.0 | 10.0 | 0.00 | 0.00 | 0.00 | 71 | 1007.4 |
| 20260506093013 | 64 | 186 | 3.0 | 8.0 | 0.00 | 0.00 | 0.00 | 72 | 1007.3 |
| 20260506092506 | 63 | 212 | 2.0 | 7.0 | 0.00 | 0.00 | 0.00 | 73 | 1007.2 |
| 20260506092011 | 62 | 164 | 2.0 | 8.0 | 0.00 | 0.00 | 0.00 | 75 | 1007.1 |
| 20260506091505 | 61 | 173 | 1.0 | 8.0 | 0.00 | 0.00 | 0.00 | 79 | 1007.1 |
| 20260506091005 | 60 | 191 | 2.0 | 9.0 | 0.00 | 0.00 | 0.00 | 83 | 1007.2 |
| 20260506090504 | 58 | 196 | 1.0 | 4.0 | 0.00 | 0.00 | 0.00 | 86 | 1007.4 |
| 20260506090003 | 58 | 85 | 0.0 | 1.0 | 0.00 | 0.00 | 0.00 | 86 | 1007.3 |
| 20260506085502 | 58 | 85 | 0.0 | 2.0 | 0.00 | 0.00 | 0.00 | 85 | 1007.4 |
| 20260506085002 | 59 | 85 | 0.0 | 2.0 | 0.00 | 0.00 | 0.00 | 85 | 1007.5 |
| 20260506084624 | 59 | 85 | 0.0 | 2.0 | 0.00 | 0.00 | 0.00 | 85 | 1007.4 |
| 20260506084100 | 59 | 85 | 0.0 | 2.0 | 0.00 | 0.00 | 0.00 | 84 | 1007.5 |
| 20260506083558 | 59 | 85 | 0.0 | 2.0 | 0.00 | 0.00 | 0.00 | 83 | 1007.6 |
| 20260506083058 | 60 | 85 | 0.0 | 3.0 | 0.00 | 0.00 | 0.00 | 83 | 1007.6 |
| 20260506082556 | 60 | 85 | 0.0 | 3.0 | 0.00 | 0.00 | 0.00 | 82 | 1007.8 |
| 20260506082056 | 60 | 85 | 0.0 | 3.0 | 0.00 | 0.00 | 0.00 | 81 | 1007.7 |
| 20260506081556 | 61 | 85 | 0.0 | 3.0 | 0.00 | 0.00 | 0.00 | 80 | 1007.7 |
| 20260506081053 | 61 | 85 | 0.0 | 2.0 | 0.00 | 0.00 | 0.00 | 78 | 1007.8 |
| 20260506080553 | 62 | 85 | 0.0 | 4.0 | 0.00 | 0.00 | 0.00 | 77 | 1007.7 |
| 20260506073047 | 66 | 218 | 2.0 | 5.0 | 0.00 | 0.00 | 0.00 | 62 | 1007.6 |
| 20260506072543 | 67 | 219 | 2.0 | 5.0 | 0.00 | 0.00 | 0.00 | 62 | 1007.5 |
| 20260506072044 | 67 | 211 | 2.0 | 5.0 | 0.00 | 0.00 | 0.00 | 61 | 1007.5 |
| 20260506071541 | 67 | 232 | 2.0 | 6.0 | 0.00 | 0.00 | 0.00 | 61 | 1007.6 |
| 20260506071040 | 67 | 166 | 3.0 | 6.0 | 0.00 | 0.00 | 0.00 | 60 | 1007.6 |
| 20260506070540 | 68 | 175 | 3.0 | 6.0 | 0.00 | 0.00 | 0.00 | 60 | 1007.6 |
| 20260506062034 | 68 | 209 | 4.0 | 9.0 | 0.00 | 0.00 | 0.00 | 58 | 1008.0 |
| 20260506061534 | 69 | 168 | 4.0 | 12.0 | 0.00 | 0.00 | 0.00 | 58 | 1008.0 |
| 20260506061033 | 69 | 160 | 4.0 | 12.0 | 0.00 | 0.00 | 0.00 | 57 | 1008.0 |
| 20260506060532 | 69 | 119 | 3.0 | 11.0 | 0.00 | 0.00 | 0.00 | 57 | 1008.0 |
| 20260506051026 | 70 | 188 | 6.0 | 12.0 | 0.00 | 0.00 | 0.00 | 53 | 1008.1 |
| 20260506050524 | 70 | 169 | 3.0 | 12.0 | 0.00 | 0.00 | 0.00 | 53 | 1008.2 |
| 20260506045022 | 69 | 227 | 2.0 | 8.0 | 0.00 | 0.00 | 0.00 | 53 | 1008.0 |
| 20260506044548 | 70 | 213 | 3.0 | 9.0 | 0.00 | 0.00 | 0.00 | 53 | 1008.0 |
| 20260506044020 | 70 | 236 | 4.0 | 9.0 | 0.00 | 0.00 | 0.00 | 52 | 1008.0 |
| 20260506043520 | 70 | 213 | 4.0 | 7.0 | 0.00 | 0.00 | 0.00 | 52 | 1007.9 |
| 20260506043018 | 70 | 203 | 2.0 | 7.0 | 0.00 | 0.00 | 0.00 | 52 | 1008.0 |
| 20260506042518 | 70 | 161 | 3.0 | 7.0 | 0.00 | 0.00 | 0.00 | 52 | 1008.0 |
| 20260506042021 | 70 | 162 | 3.0 | 7.0 | 0.00 | 0.00 | 0.00 | 52 | 1008.0 |
| 20260506041515 | 71 | 219 | 3.0 | 10.0 | 0.00 | 0.00 | 0.00 | 51 | 1008.0 |
| 20260506041017 | 71 | 226 | 4.0 | 10.0 | 0.00 | 0.00 | 0.00 | 50 | 1007.9 |
| 20260506040514 | 71 | 188 | 4.0 | 10.0 | 0.00 | 0.00 | 0.00 | 50 | 1007.8 |
| 20260506040013 | 71 | 207 | 4.0 | 13.0 | 0.00 | 0.00 | 0.00 | 50 | 1007.8 |
| 20260506035513 | 71 | 186 | 4.0 | 11.0 | 0.00 | 0.00 | 0.00 | 50 | 1007.8 |
| 20260506035013 | 71 | 194 | 5.0 | 11.0 | 0.00 | 0.00 | 0.00 | 49 | 1007.6 |
| 20260506034532 | 71 | 203 | 5.0 | 11.0 | 0.00 | 0.00 | 0.00 | 49 | 1007.8 |
| 20260506034013 | 71 | 207 | 4.0 | 12.0 | 0.00 | 0.00 | 0.00 | 49 | 1007.6 |
| 20260506033512 | 71 | 176 | 5.0 | 12.0 | 0.00 | 0.00 | 0.00 | 48 | 1007.6 |
| 20260506033012 | 71 | 194 | 5.0 | 11.0 | 0.00 | 0.00 | 0.00 | 48 | 1007.7 |
| 20260506032512 | 72 | 211 | 4.0 | 10.0 | 0.00 | 0.00 | 0.00 | 48 | 1007.7 |
| 20260506032012 | 72 | 178 | 5.0 | 10.0 | 0.00 | 0.00 | 0.00 | 47 | 1007.7 |
| 20260506031512 | 72 | 227 | 5.0 | 10.0 | 0.00 | 0.00 | 0.00 | 47 | 1007.7 |
| 20260506031012 | 72 | 183 | 5.0 | 15.0 | 0.00 | 0.00 | 0.00 | 46 | 1007.7 |
| 20260506030512 | 72 | 165 | 6.0 | 15.0 | 0.00 | 0.00 | 0.00 | 46 | 1007.7 |
| 20260506030011 | 72 | 180 | 5.0 | 11.0 | 0.00 | 0.00 | 0.00 | 47 | 1007.7 |
| 20260506025510 | 72 | 175 | 5.0 | 12.0 | 0.00 | 0.00 | 0.00 | 47 | 1007.6 |
| 20260506025011 | 72 | 202 | 5.0 | 12.0 | 0.00 | 0.00 | 0.00 | 46 | 1007.7 |
| 20260506024511 | 72 | 225 | 5.0 | 12.0 | 0.00 | 0.00 | 0.00 | 46 | 1007.7 |
| 20260506024011 | 73 | 152 | 5.0 | 12.0 | 0.00 | 0.00 | 0.00 | 46 | 1007.8 |
| 20260506023511 | 73 | 213 | 5.0 | 10.0 | 0.00 | 0.00 | 0.00 | 45 | 1007.8 |
| 20260506023010 | 73 | 177 | 4.0 | 9.0 | 0.00 | 0.00 | 0.00 | 46 | 1007.9 |
| 20260506022509 | 73 | 184 | 4.0 | 9.0 | 0.00 | 0.00 | 0.00 | 46 | 1007.8 |
| 20260506022009 | 73 | 192 | 4.0 | 9.0 | 0.00 | 0.00 | 0.00 | 45 | 1007.8 |
| 20260506021510 | 73 | 191 | 3.0 | 8.0 | 0.00 | 0.00 | 0.00 | 45 | 1007.8 |
| 20260506021010 | 73 | 201 | 4.0 | 10.0 | 0.00 | 0.00 | 0.00 | 45 | 1007.7 |
| 20260506020509 | 73 | 195 | 2.0 | 10.0 | 0.00 | 0.00 | 0.00 | 45 | 1007.7 |
| 20260506020009 | 73 | 202 | 2.0 | 5.0 | 0.00 | 0.00 | 0.00 | 45 | 1007.6 |
| 20260506015509 | 73 | 199 | 2.0 | 6.0 | 0.00 | 0.00 | 0.00 | 45 | 1007.6 |
| 20260506015011 | 73 | 186 | 3.0 | 8.0 | 0.00 | 0.00 | 0.00 | 45 | 1007.7 |
| 20260506014512 | 74 | 223 | 3.0 | 8.0 | 0.00 | 0.00 | 0.00 | 45 | 1007.6 |
| 20260506014008 | 74 | 205 | 4.0 | 9.0 | 0.00 | 0.00 | 0.00 | 44 | 1007.4 |
| 20260506013508 | 74 | 217 | 4.0 | 9.0 | 0.00 | 0.00 | 0.00 | 45 | 1007.4 |
| 20260506013008 | 74 | 227 | 5.0 | 9.0 | 0.00 | 0.00 | 0.00 | 44 | 1007.5 |
| 20260506012508 | 74 | 207 | 2.0 | 7.0 | 0.00 | 0.00 | 0.00 | 44 | 1007.2 |
| 20260506012008 | 74 | 183 | 2.0 | 7.0 | 0.00 | 0.00 | 0.00 | 43 | 1007.2 |
| 20260506011512 | 74 | 216 | 3.0 | 7.0 | 0.00 | 0.00 | 0.00 | 43 | 1007.3 |
| 20260506011009 | 75 | 232 | 2.0 | 8.0 | 0.00 | 0.00 | 0.00 | 43 | 1007.2 |
| 20260506010507 | 75 | 181 | 3.0 | 12.0 | 0.00 | 0.00 | 0.00 | 43 | 1007.1 |
| 20260506010007 | 75 | 200 | 5.0 | 12.0 | 0.00 | 0.00 | 0.00 | 43 | 1007.1 |
| 20260506005508 | 75 | 203 | 4.0 | 12.0 | 0.00 | 0.00 | 0.00 | 43 | 1007.0 |
| 20260506005006 | 75 | 189 | 4.0 | 12.0 | 0.00 | 0.00 | 0.00 | 43 | 1006.9 |
| 20260506004510 | 75 | 232 | 4.0 | 12.0 | 0.00 | 0.00 | 0.00 | 43 | 1007.0 |
| 20260506004006 | 76 | 219 | 6.0 | 12.0 | 0.00 | 0.00 | 0.00 | 41 | 1006.9 |
| 20260506003506 | 76 | 221 | 5.0 | 18.0 | 0.00 | 0.00 | 0.00 | 42 | 1006.9 |
| 20260506003005 | 76 | 163 | 5.0 | 15.0 | 0.00 | 0.00 | 0.00 | 41 | 1006.7 |
| 20260506002508 | 76 | 192 | 5.0 | 16.0 | 0.00 | 0.00 | 0.00 | 41 | 1006.6 |
| 20260506002005 | 76 | 175 | 7.0 | 16.0 | 0.00 | 0.00 | 0.00 | 41 | 1006.6 |
| 20260506001504 | 76 | 186 | 6.0 | 11.0 | 0.00 | 0.00 | 0.00 | 41 | 1006.6 |
| 20260506001005 | 76 | 209 | 5.0 | 16.0 | 0.00 | 0.00 | 0.00 | 41 | 1006.6 |
| 20260506000507 | 76 | 257 | 7.0 | 16.0 | 0.00 | 0.00 | 0.00 | 41 | 1006.4 |
| 20260506000004 | 76 | 183 | 5.0 | 11.0 | 0.00 | 0.00 | 0.00 | 41 | 1006.6 |
| 20260505235504 | 76 | 163 | 4.0 | 13.0 | 0.00 | 0.00 | 0.00 | 40 | 1006.6 |
| 20260505235003 | 76 | 173 | 4.0 | 13.0 | 0.00 | 0.00 | 0.00 | 40 | 1006.5 |
| 20260505234507 | 76 | 197 | 5.0 | 15.0 | 0.00 | 0.00 | 0.00 | 40 | 1006.3 |
| 20260505234004 | 76 | 181 | 6.0 | 15.0 | 0.00 | 0.00 | 0.00 | 39 | 1006.3 |
| 20260505233506 | 77 | 192 | 4.0 | 15.0 | 0.00 | 0.00 | 0.00 | 39 | 1006.3 |
| 20260505233007 | 77 | 137 | 7.0 | 15.0 | 0.00 | 0.00 | 0.00 | 39 | 1006.1 |
| 20260505232502 | 77 | 183 | 7.0 | 16.0 | 0.00 | 0.00 | 0.00 | 39 | 1005.9 |
| 20260505232002 | 77 | 205 | 5.0 | 13.0 | 0.00 | 0.00 | 0.00 | 39 | 1006.1 |
| 20260505231508 | 77 | 221 | 5.0 | 14.0 | 0.00 | 0.00 | 0.00 | 38 | 1005.8 |
| 20260505231001 | 77 | 174 | 6.0 | 14.0 | 0.00 | 0.00 | 0.00 | 38 | 1005.8 |
| 20260505230502 | 77 | 182 | 8.0 | 14.0 | 0.00 | 0.00 | 0.00 | 37 | 1005.7 |
| 20260505230002 | 78 | 237 | 5.0 | 17.0 | 0.00 | 0.00 | 0.00 | 37 | 1005.8 |
| 20260505225502 | 78 | 237 | 5.0 | 13.0 | 0.00 | 0.00 | 0.00 | 37 | 1005.7 |
| 20260505225001 | 78 | 200 | 5.0 | 15.0 | 0.00 | 0.00 | 0.00 | 37 | 1005.6 |
| 20260505224501 | 78 | 140 | 6.0 | 15.0 | 0.00 | 0.00 | 0.00 | 36 | 1005.5 |
| 20260505224000 | 78 | 192 | 7.0 | 14.0 | 0.00 | 0.00 | 0.00 | 36 | 1005.5 |
| 20260505223501 | 78 | 232 | 6.0 | 13.0 | 0.00 | 0.00 | 0.00 | 36 | 1005.4 |
| 20260505223101 | 78 | 170 | 6.0 | 13.0 | 0.00 | 0.00 | 0.00 | 36 | 1005.4 |
| 20260505222600 | 78 | 198 | 6.0 | 14.0 | 0.00 | 0.00 | 0.00 | 36 | 1005.3 |
| 20260505222503 | 78 | 157 | 5.0 | 15.0 | 0.00 | 0.00 | 0.00 | 36 | 1005.3 |
| 20260505222100 | 78 | 241 | 6.0 | 19.0 | 0.00 | 0.00 | 0.00 | 36 | 1005.2 |
| 20260505221604 | 79 | 227 | 7.0 | 19.0 | 0.00 | 0.00 | 0.00 | 36 | 1005.0 |
| 20260505221100 | 78 | 173 | 5.0 | 15.0 | 0.00 | 0.00 | 0.00 | 37 | 1005.0 |
| 20260505220559 | 79 | 184 | 5.0 | 13.0 | 0.00 | 0.00 | 0.00 | 37 | 1005.1 |
| 20260505220107 | 79 | 169 | 7.0 | 13.0 | 0.00 | 0.00 | 0.00 | 37 | 1005.1 |
| 20260505215559 | 79 | 207 | 3.0 | 22.0 | 0.00 | 0.00 | 0.00 | 37 | 1005.0 |
| 20260505215059 | 80 | 229 | 6.0 | 22.0 | 0.00 | 0.00 | 0.00 | 36 | 1005.0 |
| 20260505214605 | 80 | 188 | 7.0 | 20.0 | 0.00 | 0.00 | 0.00 | 36 | 1004.8 |
| 20260505214059 | 80 | 196 | 8.0 | 19.0 | 0.00 | 0.00 | 0.00 | 35 | 1004.9 |
| 20260505213558 | 80 | 164 | 7.0 | 19.0 | 0.00 | 0.00 | 0.00 | 35 | 1005.0 |
| 20260505213103 | 80 | 192 | 8.0 | 19.0 | 0.00 | 0.00 | 0.00 | 36 | 1004.7 |
| 20260505212558 | 81 | 217 | 5.0 | 19.0 | 0.00 | 0.00 | 0.00 | 35 | 1004.6 |
| 20260505212058 | 81 | 173 | 5.0 | 22.0 | 0.00 | 0.00 | 0.00 | 36 | 1004.7 |
| 20260505211602 | 81 | 213 | 9.0 | 21.0 | 0.00 | 0.00 | 0.00 | 35 | 1004.7 |
| 20260505211100 | 81 | 218 | 8.0 | 23.0 | 0.00 | 0.00 | 0.00 | 34 | 1004.7 |
| 20260505210556 | 81 | 196 | 7.0 | 18.0 | 0.00 | 0.00 | 0.00 | 33 | 1004.7 |
| 20260505210057 | 82 | 231 | 5.0 | 20.0 | 0.00 | 0.00 | 0.00 | 33 | 1004.5 |
| 20260505205557 | 83 | 164 | 9.0 | 25.0 | 0.00 | 0.00 | 0.00 | 33 | 1004.5 |
| 20260505205056 | 83 | 199 | 8.0 | 16.0 | 0.00 | 0.00 | 0.00 | 34 | 1004.6 |
| 20260505204600 | 83 | 194 | 9.0 | 33.0 | 0.00 | 0.00 | 0.00 | 33 | 1004.5 |
| 20260505204056 | 83 | 159 | 7.0 | 33.0 | 0.00 | 0.00 | 0.00 | 34 | 1004.3 |
| 20260505203554 | 82 | 190 | 11.0 | 22.0 | 0.00 | 0.00 | 0.00 | 34 | 1004.5 |
| 20260505203055 | 82 | 170 | 10.0 | 23.0 | 0.00 | 0.00 | 0.00 | 33 | 1004.4 |
| 20260505202553 | 83 | 163 | 7.0 | 24.0 | 0.00 | 0.00 | 0.00 | 35 | 1004.5 |
| 20260505202053 | 83 | 220 | 8.0 | 24.0 | 0.00 | 0.00 | 0.00 | 34 | 1004.6 |
| 20260505201552 | 83 | 188 | 9.0 | 22.0 | 0.00 | 0.00 | 0.00 | 35 | 1004.6 |
| 20260505201051 | 83 | 217 | 10.0 | 27.0 | 0.00 | 0.00 | 0.00 | 34 | 1004.7 |
| 20260505200550 | 83 | 217 | 10.0 | 27.0 | 0.00 | 0.00 | 0.00 | 34 | 1004.7 |
| 20260505200051 | 83 | 201 | 11.0 | 24.0 | 0.00 | 0.00 | 0.00 | 35 | 1004.7 |
| 20260505195549 | 82 | 194 | 9.0 | 20.0 | 0.00 | 0.00 | 0.00 | 35 | 1004.7 |
| 20260505195048 | 82 | 223 | 10.0 | 33.0 | 0.00 | 0.00 | 0.00 | 35 | 1004.8 |
| 20260505194548 | 82 | 181 | 13.0 | 33.0 | 0.00 | 0.00 | 0.00 | 34 | 1005.1 |
| 20260505194049 | 83 | 203 | 13.0 | 26.0 | 0.00 | 0.00 | 0.00 | 36 | 1004.9 |
| 20260505193545 | 82 | 222 | 8.0 | 24.0 | 0.00 | 0.00 | 0.00 | 35 | 1004.9 |
| 20260505193047 | 82 | 222 | 12.0 | 24.0 | 0.00 | 0.00 | 0.00 | 35 | 1005.1 |
| 20260505192542 | 82 | 179 | 11.0 | 30.0 | 0.00 | 0.00 | 0.00 | 36 | 1005.1 |
| 20260505192042 | 82 | 192 | 13.0 | 30.0 | 0.00 | 0.00 | 0.00 | 35 | 1005.4 |
| 20260505191553 | 81 | 183 | 13.0 | 26.0 | 0.00 | 0.00 | 0.00 | 38 | 1005.1 |
| 20260505191042 | 80 | 226 | 7.0 | 22.0 | 0.00 | 0.00 | 0.00 | 38 | 1005.3 |
| 20260505190540 | 82 | 198 | 12.0 | 24.0 | 0.00 | 0.00 | 0.00 | 36 | 1005.6 |
| 20260505190044 | 82 | 119 | 11.0 | 22.0 | 0.00 | 0.00 | 0.00 | 38 | 1005.4 |
| 20260505185540 | 83 | 171 | 10.0 | 19.0 | 0.00 | 0.00 | 0.00 | 37 | 1005.5 |
| 20260505185039 | 83 | 234 | 10.0 | 21.0 | 0.00 | 0.00 | 0.00 | 37 | 1005.6 |
| 20260505184538 | 83 | 193 | 6.0 | 22.0 | 0.00 | 0.00 | 0.00 | 38 | 1005.4 |
| 20260505184039 | 83 | 218 | 10.0 | 27.0 | 0.00 | 0.00 | 0.00 | 38 | 1005.3 |
| 20260505183536 | 83 | 213 | 9.0 | 27.0 | 0.00 | 0.00 | 0.00 | 37 | 1005.3 |
| 20260505183034 | 83 | 205 | 7.0 | 26.0 | 0.00 | 0.00 | 0.00 | 38 | 1005.7 |
| 20260505182535 | 82 | 243 | 11.0 | 26.0 | 0.00 | 0.00 | 0.00 | 37 | 1005.8 |
| 20260505182033 | 82 | 159 | 10.0 | 23.0 | 0.00 | 0.00 | 0.00 | 39 | 1005.9 |
| 20260505181532 | 82 | 199 | 10.0 | 23.0 | 0.00 | 0.00 | 0.00 | 39 | 1005.7 |
| 20260505181030 | 82 | 225 | 12.0 | 18.0 | 0.00 | 0.00 | 0.00 | 39 | 1005.8 |
| 20260505180530 | 82 | 149 | 7.0 | 23.0 | 0.00 | 0.00 | 0.00 | 41 | 1005.7 |
| 20260505180043 | 81 | 164 | 9.0 | 20.0 | 0.00 | 0.00 | 0.00 | 40 | 1005.8 |
| 20260505175528 | 82 | 162 | 7.0 | 20.0 | 0.00 | 0.00 | 0.00 | 43 | 1005.8 |
| 20260505175031 | 81 | 217 | 9.0 | 22.0 | 0.00 | 0.00 | 0.00 | 41 | 1005.8 |
| 20260505174536 | 82 | 177 | 11.0 | 24.0 | 0.00 | 0.00 | 0.00 | 41 | 1006.0 |
| 20260505174025 | 81 | 194 | 12.0 | 22.0 | 0.00 | 0.00 | 0.00 | 42 | 1006.0 |
| 20260505173524 | 81 | 163 | 9.0 | 22.0 | 0.00 | 0.00 | 0.00 | 45 | 1006.2 |
| 20260505173023 | 81 | 133 | 6.0 | 19.0 | 0.00 | 0.00 | 0.00 | 42 | 1006.2 |
| 20260505172522 | 81 | 178 | 9.0 | 19.0 | 0.00 | 0.00 | 0.00 | 42 | 1006.3 |
| 20260505172021 | 81 | 155 | 10.0 | 20.0 | 0.00 | 0.00 | 0.00 | 42 | 1006.2 |
| 20260505171524 | 81 | 168 | 10.0 | 22.0 | 0.00 | 0.00 | 0.00 | 43 | 1006.2 |
| 20260505171020 | 81 | 185 | 7.0 | 22.0 | 0.00 | 0.00 | 0.00 | 48 | 1006.2 |
| 20260505170519 | 81 | 188 | 5.0 | 19.0 | 0.00 | 0.00 | 0.00 | 48 | 1006.2 |
| 20260505170025 | 82 | 167 | 4.0 | 14.0 | 0.00 | 0.00 | 0.00 | 48 | 1006.3 |
| 20260505165521 | 81 | 157 | 4.0 | 15.0 | 0.00 | 0.00 | 0.00 | 51 | 1006.3 |
| 20260505165016 | 80 | 134 | 4.0 | 19.0 | 0.00 | 0.00 | 0.00 | 49 | 1006.4 |
| 20260505164518 | 80 | 144 | 6.0 | 19.0 | 0.00 | 0.00 | 0.00 | 46 | 1006.6 |
| 20260505164014 | 80 | 162 | 3.0 | 16.0 | 0.00 | 0.00 | 0.00 | 49 | 1006.8 |
| 20260505163514 | 80 | 217 | 9.0 | 16.0 | 0.00 | 0.00 | 0.00 | 45 | 1007.1 |
| 20260505163011 | 80 | 130 | 3.0 | 16.0 | 0.00 | 0.00 | 0.00 | 50 | 1007.0 |
| 20260505162510 | 79 | 185 | 6.0 | 16.0 | 0.00 | 0.00 | 0.00 | 47 | 1007.1 |
| 20260505162009 | 80 | 143 | 6.0 | 13.0 | 0.00 | 0.00 | 0.00 | 47 | 1007.2 |
| 20260505161508 | 79 | 201 | 6.0 | 13.0 | 0.00 | 0.00 | 0.00 | 49 | 1007.4 |
| 20260505161008 | 79 | 215 | 5.0 | 11.0 | 0.00 | 0.00 | 0.00 | 48 | 1007.5 |
| 20260505160507 | 79 | 197 | 4.0 | 15.0 | 0.00 | 0.00 | 0.00 | 50 | 1007.6 |